BLY93Q EGGD-EGHQ

Flight info

Callsign BLY93Q
Flight time 0h 32m
Altitude 8000
Route EXMOR DCT NQY
Aircraft A321/M-SDE3FGHIRWY/LB1

Departure

Time 2026-04-21 18:12
Airport Bristol Airport (EGGD)

Arrival

Time 2026-04-21 18:45
Airport Cornwall Airport Newquay (EGHQ)
Time Latitude Longitude Altitude Speed Heading
2026-04-21 18:00 51.38547 -2.71598 614 ft 0 kts 356°
2026-04-21 18:04 51.38539 -2.71597 627 ft 3 kts 354°
2026-04-21 18:04 51.38520 -2.71592 619 ft 3 kts 339°
2026-04-21 18:04 51.38504 -2.71578 625 ft 3 kts 299°
2026-04-21 18:05 51.38499 -2.71567 626 ft 2 kts 226°
2026-04-21 18:05 51.38501 -2.71563 629 ft 0 kts 217°
2026-04-21 18:07 51.38498 -2.71566 626 ft 1 kts 217°
2026-04-21 18:07 51.38479 -2.71582 617 ft 8 kts 202°
2026-04-21 18:07 51.38438 -2.71656 627 ft 11 kts 256°
2026-04-21 18:08 51.38433 -2.71727 614 ft 0 kts 266°
2026-04-21 18:09 51.38433 -2.71741 614 ft 4 kts 267°
2026-04-21 18:09 51.38431 -2.71788 614 ft 8 kts 267°
2026-04-21 18:09 51.38431 -2.71974 614 ft 15 kts 272°
2026-04-21 18:10 51.38426 -2.72150 619 ft 17 kts 267°
2026-04-21 18:10 51.38418 -2.72359 615 ft 20 kts 266°
2026-04-21 18:10 51.38409 -2.72591 627 ft 22 kts 266°
2026-04-21 18:10 51.38400 -2.72818 616 ft 20 kts 266°
2026-04-21 18:11 51.38391 -2.73046 616 ft 20 kts 266°
2026-04-21 18:11 51.38384 -2.73214 616 ft 11 kts 265°
2026-04-21 18:11 51.38339 -2.73327 629 ft 14 kts 209°
2026-04-21 18:11 51.38246 -2.73320 629 ft 14 kts 148°
2026-04-21 18:12 51.38218 -2.73176 624 ft 17 kts 87°
2026-04-21 18:12 51.38240 -2.72626 620 ft 98 kts 86°
2026-04-21 18:12 51.38309 -2.71201 1186 ft 135 kts 84°
2026-04-21 18:12 51.38370 -2.69676 2408 ft 139 kts 87°
2026-04-21 18:13 51.38411 -2.68143 3292 ft 140 kts 87°
2026-04-21 18:13 51.38458 -2.66475 3748 ft 161 kts 87°
2026-04-21 18:13 51.38512 -2.64577 4093 ft 182 kts 87°
2026-04-21 18:13 51.38574 -2.62463 4469 ft 195 kts 88°
2026-04-21 18:14 51.38708 -2.57916 5272 ft 226 kts 89°
2026-04-21 18:14 51.38445 -2.55352 5899 ft 244 kts 110°
2026-04-21 18:14 51.37473 -2.53104 6897 ft 251 kts 134°
2026-04-21 18:15 51.35947 -2.51635 7787 ft 266 kts 158°
2026-04-21 18:15 51.34069 -2.51390 8127 ft 280 kts 186°
2026-04-21 18:15 51.32266 -2.52658 8224 ft 290 kts 210°
2026-04-21 18:15 51.30571 -2.54389 8243 ft 289 kts 207°
2026-04-21 18:16 51.29008 -2.56615 8458 ft 319 kts 236°
2026-04-21 18:16 51.28224 -2.59982 9304 ft 331 kts 259°
2026-04-21 18:16 51.28055 -2.63671 10301 ft 334 kts 271°
2026-04-21 18:16 51.28203 -2.67411 11146 ft 340 kts 277°
2026-04-21 18:17 51.28461 -2.71164 11897 ft 341 kts 278°
2026-04-21 18:17 51.28708 -2.74908 12152 ft 337 kts 277°
2026-04-21 18:17 51.28891 -2.78591 12226 ft 336 kts 275°
2026-04-21 18:17 51.29016 -2.82315 12236 ft 335 kts 273°
2026-04-21 18:18 51.29096 -2.86019 12240 ft 335 kts 272°
2026-04-21 18:18 51.29154 -2.89736 12237 ft 334 kts 272°
2026-04-21 18:18 51.29200 -2.93459 12236 ft 336 kts 272°
2026-04-21 18:18 51.29246 -2.97207 12240 ft 336 kts 272°
2026-04-21 18:19 51.29169 -3.00920 12235 ft 335 kts 261°
2026-04-21 18:19 51.28481 -3.04477 12238 ft 335 kts 246°
2026-04-21 18:19 51.27418 -3.07790 12231 ft 336 kts 240°
2026-04-21 18:19 51.26211 -3.10992 12233 ft 337 kts 238°
2026-04-21 18:20 51.24989 -3.14185 12239 ft 337 kts 239°
2026-04-21 18:20 51.23808 -3.17419 12242 ft 337 kts 240°
2026-04-21 18:20 51.22681 -3.20704 12243 ft 337 kts 242°
2026-04-21 18:20 51.21600 -3.24013 12238 ft 337 kts 243°
2026-04-21 18:21 51.20541 -3.27354 12239 ft 337 kts 244°
2026-04-21 18:21 51.19495 -3.30705 12241 ft 337 kts 244°
2026-04-21 18:21 51.18450 -3.34045 12239 ft 336 kts 244°
2026-04-21 18:21 51.17297 -3.37252 12233 ft 334 kts 236°
2026-04-21 18:22 51.16419 -3.39270 12234 ft 335 kts 236°
2026-04-21 18:22 51.15095 -3.42314 12221 ft 334 kts 236°
2026-04-21 18:22 51.13771 -3.45347 12218 ft 333 kts 235°
2026-04-21 18:22 51.12450 -3.48370 12224 ft 333 kts 236°
2026-04-21 18:23 51.11123 -3.51403 12221 ft 334 kts 236°
2026-04-21 18:23 51.09794 -3.54431 12215 ft 334 kts 235°
2026-04-21 18:23 51.08468 -3.57445 12217 ft 332 kts 235°
2026-04-21 18:23 51.07144 -3.60450 12212 ft 332 kts 235°
2026-04-21 18:24 51.05816 -3.63457 12210 ft 333 kts 235°
2026-04-21 18:24 51.04488 -3.66467 12216 ft 333 kts 235°
2026-04-21 18:24 51.03157 -3.69490 12223 ft 334 kts 235°
2026-04-21 18:24 51.01826 -3.72514 12227 ft 334 kts 235°
2026-04-21 18:25 51.00492 -3.75535 12223 ft 334 kts 235°
2026-04-21 18:25 50.99152 -3.78559 12209 ft 334 kts 235°
2026-04-21 18:25 50.97815 -3.81576 12221 ft 334 kts 235°
2026-04-21 18:25 50.96478 -3.84586 12223 ft 334 kts 235°
2026-04-21 18:26 50.95126 -3.87624 12223 ft 348 kts 235°
2026-04-21 18:26 50.93666 -3.90908 12210 ft 378 kts 234°
2026-04-21 18:26 50.92096 -3.94435 12202 ft 405 kts 234°
2026-04-21 18:26 50.90446 -3.98139 12206 ft 414 kts 234°
2026-04-21 18:27 50.88780 -4.01869 12206 ft 416 kts 234°
2026-04-21 18:27 50.87110 -4.05603 12206 ft 415 kts 234°
2026-04-21 18:27 50.85441 -4.09337 12206 ft 416 kts 234°
2026-04-21 18:27 50.83789 -4.13028 12205 ft 416 kts 234°
2026-04-21 18:28 50.82093 -4.16809 12201 ft 416 kts 234°
2026-04-21 18:28 50.80416 -4.20534 12201 ft 416 kts 234°
2026-04-21 18:28 50.78734 -4.24261 12201 ft 416 kts 233°
2026-04-21 18:28 50.77078 -4.27925 12198 ft 415 kts 233°
2026-04-21 18:29 50.75404 -4.31636 12195 ft 415 kts 233°
2026-04-21 18:29 50.73730 -4.35341 12193 ft 415 kts 234°
2026-04-21 18:29 50.72053 -4.39049 12199 ft 413 kts 233°
2026-04-21 18:29 50.70437 -4.42615 12135 ft 379 kts 233°
2026-04-21 18:30 50.68986 -4.45816 11879 ft 340 kts 233°
2026-04-21 18:30 50.67669 -4.48716 11624 ft 316 kts 233°
2026-04-21 18:30 50.66395 -4.51516 11380 ft 313 kts 233°
2026-04-21 18:30 50.65127 -4.54296 11131 ft 313 kts 232°
2026-04-21 18:31 50.63852 -4.57083 10876 ft 312 kts 232°
2026-04-21 18:31 50.62584 -4.59851 10639 ft 309 kts 233°
2026-04-21 18:31 50.61348 -4.62552 10386 ft 303 kts 231°
2026-04-21 18:31 50.60115 -4.65244 10144 ft 302 kts 231°
2026-04-21 18:32 50.58872 -4.67963 10019 ft 301 kts 231°
2026-04-21 18:32 50.57676 -4.70578 9859 ft 292 kts 232°
2026-04-21 18:32 50.56531 -4.73082 9476 ft 275 kts 232°
2026-04-21 18:32 50.55433 -4.75479 9153 ft 270 kts 232°
2026-04-21 18:33 50.54325 -4.77884 8834 ft 272 kts 230°
2026-04-21 18:33 50.53211 -4.80302 8487 ft 273 kts 231°
2026-04-21 18:33 50.52103 -4.82711 8153 ft 271 kts 230°
2026-04-21 18:33 50.50989 -4.85124 7793 ft 274 kts 231°
2026-04-21 18:34 50.49867 -4.87550 7468 ft 273 kts 231°
2026-04-21 18:34 50.48753 -4.89955 7100 ft 267 kts 231°
2026-04-21 18:34 50.47717 -4.92208 6996 ft 242 kts 230°
2026-04-21 18:34 50.46776 -4.94257 6948 ft 222 kts 231°
2026-04-21 18:35 50.46183 -4.95547 6869 ft 209 kts 230°
2026-04-21 18:35 50.45150 -4.97898 6730 ft 188 kts 238°
2026-04-21 18:35 50.44687 -4.99735 6647 ft 177 kts 253°
2026-04-21 18:35 50.44518 -5.01656 6426 ft 181 kts 268°
2026-04-21 18:36 50.44639 -5.03632 6088 ft 183 kts 279°
2026-04-21 18:36 50.44836 -5.05619 5773 ft 186 kts 279°
2026-04-21 18:36 50.45032 -5.07632 5457 ft 188 kts 279°
2026-04-21 18:36 50.45229 -5.09668 5157 ft 190 kts 279°
2026-04-21 18:37 50.45427 -5.11724 4830 ft 192 kts 279°
2026-04-21 18:37 50.45629 -5.13814 4514 ft 194 kts 279°
2026-04-21 18:37 50.45830 -5.15916 4198 ft 196 kts 279°
2026-04-21 18:37 50.46032 -5.18034 3878 ft 197 kts 279°
2026-04-21 18:38 50.46236 -5.20168 3556 ft 198 kts 279°
2026-04-21 18:38 50.46445 -5.22312 3232 ft 199 kts 282°
2026-04-21 18:38 50.46982 -5.24198 3073 ft 182 kts 316°
2026-04-21 18:38 50.47899 -5.25396 2964 ft 165 kts 345°
2026-04-21 18:39 50.48942 -5.25865 2909 ft 150 kts 10°
2026-04-21 18:39 50.49929 -5.25710 2870 ft 137 kts 30°
2026-04-21 18:39 50.50756 -5.25092 2844 ft 127 kts 47°
2026-04-21 18:39 50.51373 -5.24163 2817 ft 120 kts 62°
2026-04-21 18:40 50.51765 -5.23041 2798 ft 117 kts 76°
2026-04-21 18:40 50.51934 -5.21789 2765 ft 119 kts 88°
2026-04-21 18:40 50.51910 -5.20925 2749 ft 121 kts 98°
2026-04-21 18:40 50.51389 -5.19349 2713 ft 120 kts 110°
2026-04-21 18:41 50.51002 -5.18175 2688 ft 121 kts 113°
2026-04-21 18:41 50.50596 -5.17017 2598 ft 121 kts 114°
2026-04-21 18:41 50.50181 -5.15868 2472 ft 121 kts 114°
2026-04-21 18:41 50.49765 -5.14732 2324 ft 120 kts 114°
2026-04-21 18:42 50.49347 -5.13606 2184 ft 117 kts 114°
2026-04-21 18:42 50.48941 -5.12513 2033 ft 118 kts 114°
2026-04-21 18:42 50.48527 -5.11402 1861 ft 118 kts 115°
2026-04-21 18:42 50.48111 -5.10289 1703 ft 118 kts 115°
2026-04-21 18:43 50.47688 -5.09160 1525 ft 120 kts 116°
2026-04-21 18:43 50.47268 -5.08038 1364 ft 119 kts 116°
2026-04-21 18:43 50.46849 -5.06924 1178 ft 118 kts 116°
2026-04-21 18:43 50.46442 -5.05832 1033 ft 118 kts 117°
2026-04-21 18:44 50.46031 -5.04724 871 ft 118 kts 118°
2026-04-21 18:44 50.45611 -5.03609 678 ft 119 kts 118°
2026-04-21 18:44 50.45180 -5.02474 539 ft 119 kts 117°
2026-04-21 18:44 50.44764 -5.01360 387 ft 121 kts 118°
2026-04-21 18:45 50.44369 -5.00303 331 ft 96 kts 120°
2026-04-21 18:45 50.44114 -4.99636 355 ft 47 kts 121°
2026-04-21 18:45 50.44008 -4.99351 359 ft 23 kts 120°
2026-04-21 18:45 50.43929 -4.99142 365 ft 21 kts 121°
2026-04-21 18:46 50.43853 -4.98939 375 ft 21 kts 120°
2026-04-21 18:46 50.43780 -4.98743 372 ft 23 kts 120°
2026-04-21 18:46 50.43691 -4.98511 378 ft 25 kts 121°
2026-04-21 18:46 50.43607 -4.98285 386 ft 23 kts 120°
2026-04-21 18:47 50.43528 -4.98077 391 ft 22 kts 121°
2026-04-21 18:47 50.43476 -4.97907 396 ft 14 kts 88°
2026-04-21 18:47 50.43567 -4.97861 393 ft 17 kts
2026-04-21 18:47 50.43677 -4.97947 389 ft 21 kts 309°
2026-04-21 18:48 50.43759 -4.98152 384 ft 21 kts 302°
2026-04-21 18:48 50.43838 -4.98360 378 ft 22 kts 297°
2026-04-21 18:48 50.43913 -4.98565 373 ft 17 kts 302°
2026-04-21 18:48 50.43977 -4.98731 369 ft 18 kts 300°
2026-04-21 18:49 50.44046 -4.98915 366 ft 20 kts 301°
2026-04-21 18:49 50.44107 -4.99076 364 ft 13 kts 300°
2026-04-21 18:49 50.44136 -4.99153 363 ft 14 kts 300°
2026-04-21 18:49 50.44215 -4.99359 358 ft 18 kts 300°
2026-04-21 18:50 50.44281 -4.99539 351 ft 19 kts 301°
2026-04-21 18:50 50.44346 -4.99708 353 ft 18 kts 300°
2026-04-21 18:50 50.44410 -4.99879 337 ft 17 kts 301°
2026-04-21 18:50 50.44463 -5.00019 335 ft 15 kts 300°
2026-04-21 18:51 50.44520 -5.00171 330 ft 14 kts 300°
2026-04-21 18:51 50.44572 -5.00315 329 ft 14 kts 299°
2026-04-21 18:51 50.44621 -5.00446 326 ft 14 kts 301°
2026-04-21 18:51 50.44669 -5.00517 323 ft 6 kts
2026-04-21 18:52 50.44678 -5.00481 325 ft 3 kts 78°
2026-04-21 18:52 50.44681 -5.00462 325 ft 0 kts 78°